Zurück zum Katalog

YZ-1 R/B

AktivMEO
NORAD 43109·ROCKET BODY·🇨🇳 China

Gestartet Jan 11, 2018 von Xichang Satellite Launch Center

Loading…

Nächste Überflüge (nächste 24 Stunden)

TLE

AktuellSource: Space-Track

Epoche: Sep 12, 2026, 18:50 UTC

1 43109U 18003C   26255.78473636 -.00000064  00000-0  00000-0 0  9994
2 43109  54.5423 309.4918 0125415  44.4838 316.5878  1.78158426 56422

Verfolge YZ-1 R/B in Echtzeit mit AllMySat

Download on the App Store